Date,TemperatureHighF,TemperatureAvgF,TemperatureLowF,DewpointHighF,DewpointAvgF,DewpointLowF,HumidityHigh,HumidityAvg,HumidityLow,PressureMaxIn,PressureMinIn,WindSpeedMaxMPH,WindSpeedAvgMPH,GustSpeedMaxMPH,PrecipitationSumIn
2013-1-1,51.6,48.3,41.9,14.6,6.6,-1.6,24,18,14,29.18,29.00,8,0,8,0.67
2013-1-2,52.5,46.4,41.0,13.7,4.7,-1.6,24,18,13,29.15,28.97,6,0,6,0.08
2013-1-3,52.5,41.2,27.9,5.3,-0.3,-10.1,21,17,14,29.32,29.12,6,1,8,0.00
2013-1-4,54.1,36.4,23.5,4.4,-5.0,-12.6,19,17,13,29.35,29.26,10,1,10,0.00
2013-1-5,49.3,37.0,23.0,2.1,-4.6,-12.9,20,16,14,29.38,29.26,8,0,8,0.04
2013-1-6,56.1,43.4,37.8,5.2,-1.1,-4.4,16,15,12,29.26,29.12,12,2,15,0.00
2013-1-7,55.0,40.4,27.3,5.1,-2.5,-11.0,18,16,13,29.38,29.23,11,2,13,0.00
2013-1-8,51.1,41.2,28.4,3.6,-2.2,-9.7,18,16,14,29.44,29.35,8,2,9,0.00
2013-1-9,67.3,54.6,45.9,11.0,5.1,-0.2,17,13,10,29.47,29.38,6,0,6,0.00
2013-1-10,64.2,56.2,48.2,18.1,7.4,4.1,23,14,11,29.50,29.35,13,3,15,0.00
2013-1-11,59.4,56.8,55.2,37.0,31.3,17.2,46,38,22,29.35,29.21,11,2,13,1.42
2013-1-12,70.7,60.9,54.9,54.3,30.4,11.1,67,37,12,29.26,29.18,10,0,11,0.00
2013-1-13,67.1,60.2,53.6,33.4,20.8,11.1,36,23,12,29.23,29.15,9,1,10,0.00
2013-1-14,63.7,61.3,59.2,41.5,29.0,20.8,47,30,21,29.23,29.15,13,1,14,0.98
2013-1-15,60.6,57.6,52.0,33.8,29.2,22.9,40,34,27,29.21,29.12,10,1,10,1.73
2013-1-16,58.8,53.7,50.2,29.4,23.4,15.6,38,31,22,29.15,29.06,8,1,8,0.94
2013-1-17,54.5,48.6,33.6,29.6,20.2,4.0,39,32,17,29.29,28.82,18,3,18,2.01
2013-1-18,56.3,39.4,27.3,25.0,1.8,-8.8,73,22,12,29.56,29.29,6,0,8,0.00
2013-1-19,54.5,37.9,24.8,4.4,-4.0,-11.6,23,16,13,29.56,29.32,9,1,10,0.00
2013-1-20,63.0,45.9,30.6,7.7,-0.1,-7.9,18,15,11,29.32,29.18,11,1,13,0.00
2013-1-21,59.0,41.3,27.5,6.3,-2.3,-10.4,18,16,12,29.23,29.15,17,2,18,0.00
2013-1-22,46.9,33.4,24.6,1.1,-6.4,-11.8,19,17,14,29.35,29.21,11,2,12,0.00
2013-1-23,53.4,38.0,27.0,4.0,-4.0,-10.9,18,16,13,29.41,29.26,15,1,17,0.00
2013-1-24,55.4,43.6,30.4,5.2,-0.9,-8.0,18,15,13,29.53,29.18,16,4,20,0.00
2013-1-25,34.7,28.0,25.3,-2.4,-9.5,-11.1,20,19,18,29.56,29.23,13,2,13,0.00
2013-1-26,59.4,41.9,30.6,6.8,-1.1,-7.0,24,16,12,29.41,29.21,8,1,9,0.08
2013-1-27,50.0,39.2,29.1,2.7,-2.9,-9.1,18,16,14,29.62,29.41,11,3,13,0.00
2013-1-28,53.1,44.8,37.9,4.7,0.1,-4.2,21,15,13,29.56,29.44,6,0,6,0.00
2013-1-29,69.6,54.4,38.8,19.3,8.9,-0.7,24,17,10,29.44,29.21,7,1,8,0.08
2013-1-30,63.5,57.3,43.2,26.2,18.2,2.5,29,22,14,29.21,28.76,17,5,20,1.69
2013-1-31,43.5,38.6,34.7,5.1,-2.1,-5.6,20,17,16,29.06,28.88,26,6,26,0.00
2013-2-2,50.5,36.3,32.2,2.5,-2.7,-6.4,23,19,14,29.44,29.26,9,1,11,0.00
2013-2-3,51.8,39.5,30.7,3.7,-2.4,-7.9,23,17,13,29.26,29.15,17,2,17,0.16
2013-2-4,51.1,37.0,24.6,3.6,-4.4,-11.8,19,17,14,29.32,29.21,8,1,9,0.00
2013-2-5,63.9,44.7,31.6,8.4,-0.4,-7.0,19,15,11,29.23,29.15,10,1,10,0.00
2013-2-6,68.2,48.1,32.5,19.2,2.4,-4.7,43,16,10,29.38,29.23,9,1,10,0.00
2013-2-7,49.5,45.9,36.0,4.3,0.8,-4.7,17,15,14,29.41,29.18,13,4,13,0.20
2013-2-8,60.4,46.9,34.3,7.9,2.1,-5.9,20,15,12,29.35,29.15,13,2,13,0.00
2013-2-9,62.6,42.6,24.4,7.8,-1.8,-11.9,19,15,11,29.53,29.32,9,1,10,0.00
2013-2-10,55.6,45.5,34.5,9.8,1.3,-5.9,22,16,13,29.59,29.38,16,4,16,0.91
2013-2-11,57.2,50.4,44.4,20.2,11.4,-0.3,27,21,13,29.38,29.26,10,1,10,0.31
2013-2-12,61.3,48.1,41.0,7.8,2.0,-1.9,18,15,11,29.35,29.15,9,1,9,0.24
2013-2-13,52.2,42.5,33.3,4.6,-0.4,-6.4,18,16,13,29.18,29.00,11,2,13,0.00
2013-2-14,57.2,39.7,25.3,5.2,-3.1,-11.1,21,16,12,29.32,29.18,13,1,13,0.00
2013-2-15,64.9,44.6,28.0,8.6,-0.7,-10.1,20,15,10,29.35,29.23,14,2,14,0.00
2013-2-16,46.0,35.1,26.4,1.0,-5.5,-11.0,19,17,15,29.32,29.18,22,4,22,0.00
2013-2-17,45.7,32.1,23.9,0.7,-7.2,-12.4,19,18,15,29.50,29.29,17,5,18,0.00
2013-2-18,58.3,38.7,19.2,5.6,-3.9,-15.3,20,16,12,29.59,29.44,13,2,14,0.00
2013-2-19,59.2,42.1,33.3,6.2,-1.6,-6.4,18,16,12,29.44,29.21,16,2,17,0.24
2013-2-20,61.0,40.1,22.6,7.5,-3.0,-12.9,20,16,12,29.38,29.32,10,1,11,0.00
2013-2-21,64.0,43.3,25.2,8.4,-1.4,-11.3,19,15,11,29.47,29.29,10,2,13,0.24
2013-2-22,41.7,39.2,36.1,17.1,1.0,-4.7,39,20,16,29.47,29.35,13,4,13,0.83
2013-2-23,49.5,44.1,39.4,25.0,14.8,4.6,42,31,19,29.35,29.15,7,1,7,0.55
2013-2-24,68.0,49.8,35.4,15.4,5.8,-4.4,31,18,10,29.29,29.18,10,2,10,0.00
2013-2-25,52.2,41.3,33.8,4.0,-1.4,-6.4,22,16,14,29.41,29.23,15,5,17,0.04
2013-2-26,43.7,39.0,34.7,12.6,6.1,-0.1,29,25,18,29.23,28.91,17,5,19,1.38
2013-2-27,57.6,45.6,36.7,9.6,2.2,-4.7,23,16,12,29.15,29.03,13,3,14,0.00
2013-2-28,47.8,38.0,28.6,1.1,-3.7,-9.5,18,16,14,29.26,29.12,19,5,19,0.00
2013-3-1,52.5,38.4,25.0,3.8,-3.6,-11.6,19,16,13,29.26,29.21,11,3,13,0.00
2013-3-2,47.8,37.2,29.7,1.1,-4.0,-8.6,18,17,14,29.29,29.21,13,4,13,0.00
2013-3-3,48.4,33.2,22.8,1.1,-6.7,-12.9,20,17,14,29.35,29.23,13,4,14,0.00
2013-3-4,63.9,40.1,19.8,7.9,-3.2,-14.8,20,16,11,29.44,29.32,11,1,12,0.00
2013-3-5,56.3,43.9,33.6,10.3,-0.0,-6.4,19,16,12,29.41,29.03,23,2,23,0.67
2013-3-6,43.3,34.2,26.8,-0.7,-5.9,-11.0,18,17,15,29.47,29.15,20,5,24,0.00
2013-3-7,63.7,41.2,23.2,8.1,-2.7,-12.9,20,16,11,29.56,29.44,11,2,11,0.00
2013-3-8,66.6,44.4,25.3,8.5,-1.0,-11.1,19,15,10,29.65,29.53,10,1,11,0.00
2013-3-9,64.9,46.5,29.1,8.6,0.2,-9.1,18,15,11,29.71,29.59,10,2,11,0.00
2013-3-10,65.1,51.0,40.5,8.6,2.5,-2.2,16,14,10,29.65,29.53,14,3,14,0.00
2013-3-11,58.1,53.0,50.2,20.3,10.0,2.5,27,18,13,29.53,29.23,13,3,15,1.54
2013-3-12,66.2,50.4,38.5,20.3,6.7,-2.2,39,18,10,29.47,29.21,13,2,13,0.08
2013-3-13,53.6,41.3,31.5,4.0,-2.0,-7.2,18,16,13,29.59,29.47,18,5,18,0.00
2013-3-14,58.8,38.0,23.9,5.8,-4.1,-12.4,19,16,12,29.71,29.59,14,2,14,0.00
2013-3-15,73.6,52.4,30.6,16.2,3.3,-8.0,18,14,9,29.62,29.41,14,2,18,0.00
2013-3-16,77.4,62.3,51.6,17.0,8.3,2.5,14,12,9,29.44,29.32,17,2,19,0.00
2013-3-17,74.5,59.5,46.6,16.4,7.2,-0.2,16,12,9,29.47,29.38,15,2,16,0.00
2013-3-18,53.4,45.3,42.4,24.5,11.4,-0.2,44,27,14,29.53,29.35,11,3,13,0.71
2013-3-19,65.1,49.4,37.9,40.5,10.6,-4.2,72,25,10,29.59,29.38,13,2,15,0.00
2013-3-20,61.0,43.6,34.3,7.8,-0.9,-5.9,17,15,12,29.65,17.72,15,3,15,0.00
2013-3-21,48.9,34.4,25.0,1.7,-6.0,-11.4,19,17,14,17.72,17.72,12,2,15,0.00
2013-3-22,51.4,39.5,25.5,3.3,-3.2,-11.0,19,16,14,17.72,17.72,8,1,9,0.00
2013-3-23,55.2,45.8,39.7,8.6,4.2,-2.8,21,18,15,17.72,17.72,10,2,10,0.35
2013-3-24,50.7,45.1,40.3,12.0,6.5,-2.3,25,20,16,17.72,17.72,15,4,17,1.26
2013-3-25,41.0,35.7,30.9,-1.7,-4.9,-7.6,18,17,16,17.72,17.72,17,6,20,0.00
2013-3-26,46.6,35.5,26.8,0.6,-5.2,-11.0,18,17,15,17.72,17.72,13,4,15,0.00
2013-3-27,58.5,40.6,26.6,5.8,-2.6,-11.0,19,16,12,17.72,17.72,11,2,13,0.00
2013-3-28,63.0,40.7,25.7,7.8,-2.8,-11.0,19,16,11,17.72,17.72,13,2,15,0.00
2013-3-29,64.9,46.9,28.6,8.6,0.5,-9.5,18,14,10,17.72,17.72,9,1,10,0.00
2013-3-30,69.3,54.3,42.4,10.7,5.5,-0.2,18,14,10,17.72,17.72,10,1,11,0.35
2013-3-31,68.7,57.6,52.9,19.4,12.3,6.7,26,17,10,17.72,17.72,12,1,16,0.51
2013-4-1,71.4,57.4,46.4,19.3,8.9,-0.1,27,15,9,17.72,17.72,13,2,17,0.00
2013-4-2,69.3,52.7,38.5,10.4,3.2,-3.8,16,13,10,17.72,17.72,13,2,18,0.00
2013-4-3,61.9,51.8,45.1,7.8,3.0,-0.2,15,13,11,17.72,17.72,12,3,13,0.00
2013-4-4,49.8,42.2,36.5,3.5,0.5,-4.4,21,17,14,17.72,17.72,15,4,15,0.35
2013-4-5,67.3,48.8,37.9,9.8,4.2,-1.2,24,16,10,17.72,17.72,9,1,10,0.00
2013-4-6,65.5,56.6,33.6,7.9,4.4,-4.9,20,12,10,17.72,17.72,13,2,13,0.00
2013-4-7,65.5,65.5,65.5,7.5,7.5,7.5,10,10,10,17.72,17.72,13,2,16,0.00
2013-4-8,65.5,65.5,65.5,7.5,7.5,7.5,10,10,10,17.72,17.72,15,2,15,0.00
2013-4-9,65.5,65.5,65.5,7.5,7.5,7.5,10,10,10,17.72,17.72,13,1,15,0.00
2013-4-10,65.5,65.5,65.5,7.5,7.5,7.5,10,10,10,17.72,17.72,13,2,14,0.00
2013-4-11,65.5,65.5,65.5,7.5,7.5,7.5,10,10,10,17.72,17.72,17,2,19,0.79
2013-4-12,65.5,65.5,65.5,7.5,7.5,7.5,10,10,10,17.72,17.72,15,4,15,0.08
2013-4-13,65.5,65.5,65.5,7.5,7.5,7.5,10,10,10,17.72,17.72,13,2,13,0.00
2013-4-14,65.5,65.5,65.5,7.5,7.5,7.5,10,10,10,17.72,17.72,13,2,13,0.12
2013-4-15,65.5,65.5,65.5,7.5,7.5,7.5,10,10,10,17.72,17.72,12,3,13,0.08
2013-4-16,65.5,65.5,65.5,7.5,7.5,7.5,10,10,10,17.72,17.72,11,1,11,0.00
2013-4-17,65.5,65.5,65.5,7.5,7.5,7.5,10,10,10,17.72,17.72,15,1,15,2.28
2013-4-18,65.5,65.5,65.5,7.5,7.5,7.5,10,10,10,17.72,17.72,15,3,15,0.00
2013-4-19,65.5,65.5,65.5,7.5,7.5,7.5,10,10,10,17.72,17.72,15,4,15,0.75
2013-4-20,65.5,65.5,65.5,7.5,7.5,7.5,10,10,10,17.72,17.72,16,2,16,0.00
2013-4-21,65.5,65.5,65.5,7.5,7.5,7.5,10,10,10,17.72,17.72,15,3,17,0.00
2013-4-22,65.5,65.5,65.5,7.5,7.5,7.5,10,10,10,17.72,17.72,15,3,15,0.00
2013-4-23,65.5,65.5,65.5,7.5,7.5,7.5,10,10,10,17.72,17.72,11,2,11,0.00
2013-4-24,65.5,65.5,65.5,7.5,7.5,7.5,10,10,10,17.72,17.72,15,1,16,0.04
2013-4-25,65.5,65.5,65.5,7.5,7.5,7.5,10,10,10,17.72,17.72,10,1,11,0.00
2013-4-26,65.5,65.5,65.5,7.5,7.5,7.5,10,10,10,17.72,17.72,15,2,17,0.00
2013-4-27,65.5,65.5,65.5,7.5,7.5,7.5,10,10,10,17.72,17.72,9,2,9,0.63
2013-4-28,65.5,65.5,65.5,7.5,7.5,7.5,10,10,10,17.72,17.72,12,2,12,3.39
2013-4-29,65.5,65.5,65.5,7.5,7.5,7.5,10,10,10,17.72,17.72,13,1,13,0.04
2013-4-30,65.5,65.5,65.5,7.5,7.5,7.5,10,10,10,17.72,17.72,12,2,15,0.00
2013-5-1,65.5,65.5,65.5,7.5,7.5,7.5,10,10,10,17.72,17.72,15,5,18,0.00
2013-5-2,65.5,65.5,65.5,7.5,7.5,7.5,10,10,10,17.72,17.72,13,5,13,0.00
2013-5-3,65.5,65.5,65.5,7.5,7.5,7.5,10,10,10,17.72,17.72,14,6,15,0.16
2013-5-4,65.5,65.5,65.5,7.5,7.5,7.5,10,10,10,17.72,17.72,17,7,18,1.06
2013-5-5,65.5,65.5,65.5,7.5,7.5,7.5,10,10,10,17.72,17.72,14,4,17,2.01
2013-5-6,65.5,65.5,65.5,7.5,7.5,7.5,10,10,10,17.72,17.72,10,1,10,0.04
2013-5-7,65.5,65.5,65.5,7.5,7.5,7.5,10,10,10,17.72,17.72,10,1,12,0.00
2013-5-8,65.5,65.5,65.5,7.5,7.5,7.5,10,10,10,17.72,17.72,13,1,13,0.00
2013-5-9,65.5,65.5,65.5,7.5,7.5,7.5,10,10,10,17.72,17.72,12,1,15,0.00
2013-5-10,65.5,65.5,65.5,7.5,7.5,7.5,10,10,10,17.72,17.72,14,1,14,0.00
2013-5-11,65.5,65.5,65.5,7.5,7.5,7.5,10,10,10,17.72,17.72,13,1,15,0.00
2013-5-12,65.5,65.5,65.5,7.5,7.5,7.5,10,10,10,17.72,17.72,11,2,13,0.00
2013-5-13,65.5,65.5,65.5,7.5,7.5,7.5,10,10,10,17.72,17.72,11,2,13,0.00
2013-5-14,65.5,65.5,65.5,7.5,7.5,7.5,10,10,10,17.72,17.72,13,2,13,0.00
2013-5-15,65.5,65.5,65.5,7.5,7.5,7.5,10,10,10,17.72,17.72,10,1,11,0.00
2013-5-16,65.5,65.5,65.5,7.5,7.5,7.5,10,10,10,17.72,17.72,8,1,11,0.00
2013-5-17,65.5,65.5,65.5,7.5,7.5,7.5,10,10,10,17.72,17.72,11,1,13,0.00
2013-5-18,65.5,65.5,65.5,7.5,7.5,7.5,10,10,10,17.72,17.72,6,0,9,0.20
2013-5-19,65.5,65.5,65.5,7.5,7.5,7.5,10,10,10,17.72,17.72,5,0,8,1.02
2013-5-20,65.5,65.5,65.5,7.5,7.5,7.5,10,10,10,0.00,40.00,4,0,4,0.00
2013-5-26,93.7,76.0,57.4,20.4,15.5,6.5,17,10,6,28.73,28.61,6,2,10,0.00
2013-5-27,74.1,66.4,51.1,29.4,16.6,8.4,29,16,11,28.70,28.61,10,1,10,0.51
2013-5-28,81.9,70.9,58.8,33.2,20.1,12.1,31,16,9,28.67,28.61,10,2,14,0.00
2013-5-29,75.6,70.0,56.5,33.1,27.9,17.0,29,21,16,28.70,28.61,10,2,12,0.00
2013-5-30,84.7,70.1,59.7,32.3,20.3,12.8,27,16,8,28.73,28.61,10,2,11,0.00
2013-5-31,73.9,70.7,63.1,32.7,22.7,19.1,26,17,13,28.70,28.59,13,2,13,0.00
2013-6-1,73.8,73.8,73.8,19.9,19.9,19.9,13,13,13,28.61,28.53,10,2,11,0.00
2013-6-2,73.8,73.8,73.8,19.9,19.9,19.9,13,13,13,28.56,28.41,6,0,9,0.00
2013-6-3,73.8,73.8,73.8,19.9,19.9,19.9,13,13,13,28.47,28.38,6,1,8,0.51
2013-6-4,73.8,73.8,73.8,19.9,19.9,19.9,13,13,13,28.56,28.44,9,1,9,0.00
2013-6-5,73.8,73.8,73.8,19.9,19.9,19.9,13,13,13,28.56,28.44,13,2,13,0.00
2013-6-6,73.8,73.8,73.8,19.9,19.9,19.9,13,13,13,28.47,28.29,7,1,8,0.51
2013-6-7,73.8,73.8,73.8,19.9,19.9,19.9,13,13,13,28.35,28.20,12,1,14,0.51
2013-6-8,73.8,73.8,73.8,19.9,19.9,19.9,13,13,13,28.61,28.35,9,1,10,0.51
2013-6-9,73.8,73.8,73.8,19.9,19.9,19.9,13,13,13,28.61,28.53,10,2,13,0.51
2013-6-10,73.8,73.8,73.8,19.9,19.9,19.9,13,13,13,28.56,28.44,10,2,13,0.00
2013-6-11,73.8,73.8,73.8,19.9,19.9,19.9,13,13,13,28.56,28.47,9,1,11,0.51
2013-6-12,73.8,73.8,73.8,19.9,19.9,19.9,13,13,13,28.59,28.50,6,0,9,0.51
2013-6-13,73.8,73.8,73.8,19.9,19.9,19.9,13,13,13,28.50,28.29,12,2,17,0.00
2013-6-14,73.8,73.8,73.8,19.9,19.9,19.9,13,13,13,28.56,28.35,8,1,9,0.00
2013-6-15,73.8,73.8,73.8,19.9,19.9,19.9,13,13,13,28.64,28.56,7,1,9,0.51
2013-6-16,73.8,73.8,73.8,19.9,19.9,19.9,13,13,13,28.67,28.56,8,1,10,0.00
2013-6-17,73.8,73.8,73.8,19.9,19.9,19.9,13,13,13,28.61,28.47,8,1,9,0.51
2013-6-18,73.8,73.8,73.8,19.9,19.9,19.9,13,13,13,28.50,28.38,11,1,15,0.00
2013-6-19,73.8,73.8,73.8,19.9,19.9,19.9,13,13,13,28.61,28.41,7,1,8,0.00
2013-6-20,73.8,73.8,73.8,19.9,19.9,19.9,13,13,13,28.73,28.61,10,2,13,0.51
2013-6-21,73.8,73.8,73.8,19.9,19.9,19.9,13,13,13,28.76,28.67,9,2,9,0.51
2013-6-22,73.8,73.8,73.8,19.9,19.9,19.9,13,13,13,28.76,28.64,8,2,9,0.51
2013-6-23,73.8,73.8,73.8,19.9,19.9,19.9,13,13,13,28.73,28.64,10,2,10,0.51
2013-6-24,73.8,73.8,73.8,19.9,19.9,19.9,13,13,13,28.76,28.64,8,1,10,0.51
2013-6-25,73.8,73.8,73.8,19.9,19.9,19.9,13,13,13,28.70,28.59,7,1,10,0.00
2013-6-26,73.8,73.8,73.8,19.9,19.9,19.9,13,13,13,28.61,28.50,5,0,11,0.51
2013-6-27,73.8,73.8,73.8,19.9,19.9,19.9,13,13,13,28.53,28.35,8,1,10,0.00
2013-6-28,73.8,73.8,73.8,19.9,19.9,19.9,13,13,13,28.41,28.23,10,1,10,0.51
2013-6-29,73.8,73.8,73.8,19.9,19.9,19.9,13,13,13,28.29,28.23,6,1,8,0.51
2013-6-30,73.8,73.8,73.8,19.9,19.9,19.9,13,13,13,28.38,28.26,10,1,10,0.00
2013-7-1,73.8,73.8,73.8,19.9,19.9,19.9,13,13,13,28.50,28.35,9,2,13,0.00
2013-7-2,73.8,73.8,73.8,19.9,19.9,19.9,13,13,13,28.64,28.50,11,3,13,0.00
2013-7-3,73.8,73.8,73.8,19.9,19.9,19.9,13,13,13,28.70,28.61,9,2,13,0.51
2013-7-4,73.8,73.8,73.8,19.9,19.9,19.9,13,13,13,28.73,28.64,10,2,11,0.00
2013-7-5,73.8,73.8,73.8,19.9,19.9,19.9,13,13,13,28.76,28.67,9,2,10,0.51
2013-7-6,73.8,73.8,73.8,19.9,19.9,19.9,13,13,13,28.73,28.61,11,2,15,0.51
2013-7-7,73.8,73.8,73.8,19.9,19.9,19.9,13,13,13,28.70,28.64,5,0,8,0.00
2013-7-8,73.8,73.8,73.8,19.9,19.9,19.9,13,13,13,28.73,28.64,10,1,11,0.00
2013-7-9,73.8,73.8,73.8,19.9,19.9,19.9,13,13,13,28.70,28.61,7,1,9,0.00
2013-7-10,73.8,73.8,73.8,19.9,19.9,19.9,13,13,13,28.67,28.53,8,1,9,0.51
2013-7-11,73.8,73.8,73.8,19.9,19.9,19.9,13,13,13,28.53,28.44,5,0,6,0.00
2013-7-12,73.8,73.8,73.8,19.9,19.9,19.9,13,13,13,28.53,28.44,8,1,8,0.00
2013-7-13,73.8,73.8,73.8,19.9,19.9,19.9,13,13,13,28.61,28.50,6,1,8,0.00
2013-7-14,73.8,73.8,73.8,19.9,19.9,19.9,13,13,13,28.79,28.61,9,4,11,0.00
2013-7-15,73.8,73.8,73.8,19.9,19.9,19.9,13,13,13,28.85,28.79,11,5,13,0.00
2013-7-31,0.0,0.0,0.0,0.0,0.0,0.0,0,0,100,28.61,28.50,0,0,0,4.69
2013-8-1,0.0,0.0,0.0,0.0,0.0,0.0,0,0,100,28.53,28.44,0,0,0,0.04
2013-8-2,0.0,0.0,0.0,0.0,0.0,0.0,0,0,100,28.59,28.47,0,0,0,0.00
2013-8-3,0.0,0.0,0.0,0.0,0.0,0.0,0,0,100,28.59,28.53,0,0,0,0.00
2013-8-4,0.0,0.0,0.0,0.0,0.0,0.0,0,0,100,28.56,28.47,10,1,10,0.00
2013-8-5,0.0,0.0,0.0,0.0,0.0,0.0,0,0,100,28.59,28.53,8,1,9,0.00
2013-8-6,0.0,0.0,0.0,0.0,0.0,0.0,0,0,100,28.59,28.50,9,1,9,0.00
2013-8-7,0.0,0.0,0.0,0.0,0.0,0.0,0,0,100,28.59,28.56,8,0,8,3.35
2013-8-8,0.0,0.0,0.0,0.0,0.0,0.0,0,0,100,28.61,28.53,12,1,13,0.08
2013-8-9,0.0,0.0,0.0,0.0,0.0,0.0,0,0,100,28.64,28.56,14,1,14,0.20
2013-8-10,0.0,0.0,0.0,0.0,0.0,0.0,0,0,100,28.67,28.59,13,1,14,0.00
2013-8-11,0.0,0.0,0.0,0.0,0.0,0.0,0,0,100,28.70,28.61,8,0,9,0.00
2013-8-12,0.0,0.0,0.0,0.0,0.0,0.0,0,0,100,28.64,28.53,8,0,9,0.00
2013-8-13,0.0,0.0,0.0,0.0,0.0,0.0,0,0,100,28.56,28.41,10,1,11,0.00
2013-8-14,0.0,0.0,0.0,0.0,0.0,0.0,0,0,100,28.59,28.44,10,2,11,0.00
2013-8-15,0.0,0.0,0.0,0.0,0.0,0.0,0,0,100,28.64,28.56,12,3,13,0.00
2013-8-16,0.0,0.0,0.0,0.0,0.0,0.0,0,0,100,28.64,28.59,11,2,12,0.00
2013-8-17,0.0,0.0,0.0,0.0,0.0,0.0,0,0,100,28.67,28.59,9,2,9,0.00
2013-8-18,0.0,0.0,0.0,0.0,0.0,0.0,0,0,100,28.73,28.64,6,1,7,0.00
2013-8-19,0.0,0.0,0.0,0.0,0.0,0.0,0,0,100,28.70,28.61,8,1,9,0.00
2013-8-20,0.0,0.0,0.0,0.0,0.0,0.0,0,0,100,28.73,28.61,6,1,7,0.00
2013-8-21,0.0,0.0,0.0,0.0,0.0,0.0,0,0,100,28.76,28.67,8,0,8,0.00
2013-8-22,0.0,0.0,0.0,0.0,0.0,0.0,0,0,100,28.70,28.59,9,1,11,0.00
2013-8-23,0.0,0.0,0.0,0.0,0.0,0.0,0,0,100,28.61,28.50,13,1,13,0.00
2013-8-24,0.0,0.0,0.0,0.0,0.0,0.0,0,0,100,28.79,28.59,10,2,13,0.00
2013-8-25,0.0,0.0,0.0,0.0,0.0,0.0,0,0,100,28.88,28.79,10,2,11,0.00
2013-8-26,0.0,0.0,0.0,0.0,0.0,0.0,0,0,100,28.85,28.67,10,1,10,3.19
2013-8-27,0.0,0.0,0.0,0.0,0.0,0.0,0,0,100,28.70,28.56,9,1,9,0.00
2013-8-28,0.0,0.0,0.0,0.0,0.0,0.0,0,0,100,28.56,28.53,4,2,6,0.00
2013-9-22,0.0,0.0,0.0,0.0,0.0,0.0,0,0,100,28.41,28.32,8,1,8,0.00
2013-9-23,0.0,0.0,0.0,0.0,0.0,0.0,0,0,100,28.56,28.41,10,1,10,0.00
2013-9-24,0.0,0.0,0.0,0.0,0.0,0.0,0,0,100,28.56,28.44,8,1,8,0.00
2013-9-25,0.0,0.0,0.0,0.0,0.0,0.0,0,0,100,28.44,28.35,7,1,8,0.00
2013-9-26,0.0,0.0,0.0,0.0,0.0,0.0,0,0,100,28.53,28.38,10,1,10,0.00
2013-9-27,0.0,0.0,0.0,0.0,0.0,0.0,0,0,100,28.64,28.53,8,1,10,0.00
2013-9-28,0.0,0.0,0.0,0.0,0.0,0.0,0,0,100,28.73,28.61,10,1,10,0.00
2013-9-29,0.0,0.0,0.0,0.0,0.0,0.0,0,0,100,28.67,28.53,10,1,10,0.00
2013-9-30,0.0,0.0,0.0,0.0,0.0,0.0,0,0,100,28.59,28.50,10,1,10,0.00
2013-10-1,0.0,0.0,0.0,0.0,0.0,0.0,0,0,100,28.64,28.56,6,0,8,0.00
2013-10-13,0.0,0.0,0.0,0.0,0.0,0.0,0,0,100,28.67,28.61,6,1,8,4.72
2013-10-17,0.0,0.0,0.0,0.0,0.0,0.0,0,0,100,28.41,28.38,8,1,8,0.75
2013-10-18,0.0,0.0,0.0,0.0,0.0,0.0,0,0,100,28.44,28.44,6,2,6,0.00
2013-10-28,0.0,0.0,0.0,0.0,0.0,0.0,0,0,100,28.67,28.64,0,0,5,0.20
2013-10-29,0.0,0.0,0.0,0.0,0.0,0.0,0,0,100,28.76,28.67,8,2,9,0.00
2013-10-30,0.0,0.0,0.0,0.0,0.0,0.0,0,0,100,28.73,28.61,10,2,10,0.00
2013-10-31,0.0,0.0,0.0,0.0,0.0,0.0,0,0,100,28.64,28.35,12,1,12,0.00
2013-11-1,0.0,0.0,0.0,0.0,0.0,0.0,0,0,100,28.35,28.20,15,2,20,0.47